Location: Cornjum
(53.2450°N, 5.7816°E)
Time: 13:19:51
(UTC+00:00)

Daily predictions for brighter satellites

Satellite Brightness Start Highest point End
(mag) Time Altitude Azimuth Time Altitude Azimuth Time Altitude Azimuth
SPOT 5 2.6 20:50:54 10° SSE 20:55:15 88° WSW 20:59:37 10° NNW
Cosmos 2084 Rocket 3.4 20:51:49 10° NW 20:55:40 69° SW 20:59:40 10° SE
RESURS DK-1 3.5 20:52:30 10° NW 20:56:21 39° WSW 21:00:12 10° S
Cosmos 1703 3.2 20:53:46 10° S 20:57:36 77° E 21:01:29 10° NNE
CZ-4B R/B 2.6 20:57:48 10° N 21:00:31 37° WNW 21:03:12 10° SW
Cosmos 1452 Rocket 3.5 20:55:16 10° SSW 21:00:32 86° ESE 21:05:51 10° NNE
Cosmos 1833 Rocket 2.8 20:55:16 10° SSW 21:00:45 58° ESE 21:06:17 10° NE
Terra 1.9 20:57:12 10° SSE 21:01:57 77° ENE 21:06:45 10° NNW
FALCON 9 DEB 3.0 21:02:21 10° W 21:05:37 71° SSW 21:08:52 10° ESE
Helios 1A Rocket 3.1 21:01:58 10° S 21:06:03 74° WSW 21:10:11 10° NNW
Cosmos 1110 Rocket 4.1 21:01:19 10° SSW 21:06:32 66° ESE 21:11:49 10° NNE
Cosmos 2322 Rocket 3.8 21:02:29 10° NNW 21:07:21 28° NE 21:12:13 10° E
ERS-1 Rocket 3.1 21:03:30 10° SSE 21:08:33 79° WSW 21:13:37 10° NNW
Cosmos 1892 Rocket 4.4 21:04:45 10° SSE 21:08:45 35° E 21:12:44 10° NNE
Resurs 01 Rocket 3.9 21:05:57 10° SW 21:09:24 22° W 21:12:52 10° NW
Cosmos 2228 3.3 21:05:51 10° NNW 21:10:04 65° W 21:14:16 10° S
Cosmos 2058 Rocket 3.7 21:06:45 10° N 21:11:01 44° ENE 21:15:17 10° SE
Cosmos 2184 Rocket 4.5 21:07:47 10° NNW 21:13:53 62° W 21:19:59 10° S
Cosmos 1825 4.1 21:15:21 10° SE 21:17:41 16° E 21:20:02 10° NE
Cosmos 2278 4.0 21:12:56 10° NNW 21:18:39 64° NE 21:24:19 10° SE
Cosmos 1408 3.5 21:16:15 10° SSE 21:19:10 29° E 21:22:12 10° NNE
Cosmos 968 Rocket 3.5 21:16:14 10° NNW 21:21:29 90° ENE 21:26:36 11° SSE
Cosmos 2333 Rocket 4.4 21:17:30 10° NNW 21:21:51 21° NNE 21:26:12 10° ENE
Cosmos 1328 3.8 21:22:53 10° S 21:26:53 72° E 21:30:52 10° NNE
USA 276 2.4 21:24:50 10° WSW 21:27:44 43° S 21:30:39 10° ESE
SJ 16-02 3.1 21:27:05 10° N 21:30:42 24° NE 21:34:18 10° ESE
Cosmos 1867 3.7 21:25:58 10° NW 21:31:27 71° SW 21:36:30 12° SSE
Cosmos 2082 Rocket 2.5 21:29:10 10° S 21:34:36 48° ESE 21:40:04 10° NE
USA 267 4.1 21:30:22 10° ENE 21:35:47 27° SE 21:41:11 10° S
Cosmos 1606 Rocket 4.2 21:34:32 10° NNW 21:38:45 52° W 21:42:58 10° S
GP-B 3.4 21:35:21 10° N 21:39:43 53° E 21:43:34 13° SSE
ARIANE 5 R/B 2.9 21:35:45 10° S 21:40:11 65° WSW 21:44:36 10° NNW
Cosmos 2341 Rocket 4.1 21:34:41 10° N 21:41:04 82° E 21:47:01 12° SSE
Cosmos 2360 Rocket 3.7 21:38:21 10° NNW 21:43:26 32° NE 21:48:28 10° ESE
SAR-Lupe-4 4.3 21:40:42 10° NNE 21:44:04 37° E 21:46:46 14° SSE
Cosmos 192 4.3 21:44:50 10° SSW 21:49:43 78° ESE 21:54:39 10° NNE
SAR-Lupe-1 4.1 21:57:08 10° NNE 22:00:42 64° ESE 22:03:39 14° S
Okean 1-7 Rocket 4.0 21:58:40 15° SSE 22:02:10 49° E 22:06:32 10° NNE
Cosmos 1892 2.6 22:02:06 13° S 22:05:23 82° E 22:09:11 10° NNE
USA 234 3.3 22:06:15 10° ESE 22:12:50 85° SSW 22:19:27 10° WNW
Cosmos 2181 Rocket 4.0 22:07:21 12° S 22:13:01 74° E 22:19:17 10° NNE
Cosmos 1633 3.6 22:12:09 18° SE 22:14:03 29° E 22:17:06 10° NNE
Cosmos 1980 Rocket 3.2 22:11:03 10° NW 22:16:16 38° WSW 22:20:52 13° S
Cosmos 1821 Rocket 4.3 22:10:11 10° N 22:16:22 57° ENE 22:21:23 15° SSE
SL-16 R/B 2.3 22:10:52 10° NNW 22:16:35 78° ENE 22:21:23 15° SE
Cosmos 1486 Rocket 4.1 22:11:47 10° NNW 22:17:00 72° WSW 22:21:05 17° SSE
Cosmos 1812 Rocket 3.8 22:14:27 10° N 22:18:54 61° ENE 22:22:08 18° SSE
Cosmos 1992 Rocket 4.1 22:15:18 13° S 22:19:56 59° ESE 22:25:06 10° NNE
Cosmos 2219 Rocket 3.9 22:15:33 10° NNW 22:20:29 29° NE 22:25:25 10° E
Cosmos-2242 3.2 22:24:02 10° N 22:28:15 59° ENE 22:31:12 19° SSE
COSMOS 2406 3.7 22:23:08 10° SW 22:28:50 63° NW 22:34:34 10° NNE
ATLAS 5 CENTAUR R/B 1.5 22:29:23 14° SSW 22:32:23 48° SE 22:36:31 10° NE
Cosmos 1869 3.6 22:28:34 10° NNW 22:32:24 58° W 22:35:09 18° S
Cosmos 807 4.1 22:29:39 10° NNW 22:32:48 82° W 22:34:24 24° S
Cosmos 1602 Rocket 3.7 22:32:11 19° S 22:35:08 59° E 22:39:24 10° NNE
In-Cosmos 22 Rocket 4.2 22:30:23 12° SSW 22:35:36 81° WNW 22:41:03 10° NNE
ERS-2 4.1 22:33:45 10° NE 22:36:09 17° E 22:37:40 13° ESE
Terra 4.0 22:37:04 10° SW 22:40:17 18° W 22:43:30 10° NW
Nadezhda 3 Rocket 4.4 22:36:22 17° SSE 22:40:55 51° E 22:46:52 10° NNE
ASTEX 1 4.1 22:36:08 10° N 22:40:59 50° WNW 22:45:48 10° SSW
FALCON 9 DEB 4.2 22:38:49 10° W 22:41:33 25° SSW 22:42:17 22° S
ALOS 2 2.7 22:39:48 19° SSE 22:42:53 73° ENE 22:47:17 10° NNW
Cosmos 1833 Rocket 4.3 22:39:51 10° WSW 22:45:00 36° NW 22:50:12 10° NNE
Cosmos 1354 Rocket 4.0 22:39:55 10° NNW 22:45:16 81° WSW 22:49:06 19° SSE
BREEZE-M DEB (TANK) 3.8 22:45:08 10° W 22:48:20 54° S 22:59:47 10° ESE
ADEOS Rocket 3.6 22:45:43 17° SSE 22:51:48 86° ENE 22:59:39 10° NNW
Cosmos 2322 Rocket 2.2 22:46:21 10° NNW 22:52:04 84° WSW 22:56:24 18° SSE
Cosmos 1825 2.7 22:49:40 15° SSW 22:52:37 53° WNW 22:56:20 10° N
Cosmos 1408 4.4 22:50:59 10° SW 22:53:52 24° WNW 22:56:46 10° NNW
Cosmos 1503 Rocket 4.3 22:49:46 10° NNW 22:55:00 59° WSW 22:58:35 20° S
Cosmos 1626 Rocket 3.9 22:54:44 15° SSW 22:58:15 59° WNW 23:02:36 10° N
USA 276 3.4 23:00:37 10° WSW 23:02:50 22° SSW 23:02:50 22° SSW
Cosmos 1777 Rocket 4.0 22:57:45 10° NNW 23:03:06 85° WSW 23:06:53 19° SSE
Cosmos 2333 Rocket 2.7 23:01:35 10° NNW 23:07:20 62° NE 23:12:51 11° SE
SJ 16-02 1.5 23:05:15 10° NNW 23:09:38 61° WSW 23:12:19 22° S
Cosmos 1825 Rocket 3.7 23:08:17 22° S 23:10:54 61° E 23:15:12 10° NNE
Gbstr 26 Del rocket 4.2 23:11:09 22° SSE 23:12:22 25° SE 23:16:27 10° E
CENTAUR R/B 4.4 23:10:42 10° ESE 23:12:34 11° E 23:14:31 10° E
Cosmos 1340 Rocket 3.5 23:13:04 22° SSE 23:15:08 42° E 23:18:55 10° NNE
H-2A R/B 3.4 23:13:55 10° NNE 23:18:09 89° WNW 23:20:55 21° SSW
Cosmos 2082 Rocket 3.4 23:13:24 10° WSW 23:18:49 42° NW 23:24:14 10° NNE
USA 267 3.2 23:13:03 10° ENE 23:19:36 70° SSE 23:26:07 10° SW
Cosmos 2221 2.9 23:21:03 10° N 23:25:23 60° ENE 23:28:17 20° SSE
Cosmos 1606 3.3 23:22:23 10° NNW 23:26:07 48° W 23:28:16 22° SSW
Cosmos 2360 Rocket 2.2 23:22:16 10° NW 23:27:56 71° WSW 23:32:00 19° SSE
Cosmos 1842 Rocket 4.2 23:23:40 10° N 23:28:03 50° ENE 23:31:14 18° SE
Cosmos 1934 Rocket 3.9 23:22:29 10° N 23:28:37 89° WSW 23:33:06 20° S
Cosmos 2058 2.9 23:26:08 23° S 23:28:41 83° E 23:32:54 10° NNE
Cosmos 2333 4.3 23:26:39 10° NNW 23:32:29 86° ENE 23:37:21 15° SSE
Cosmos 1782 4.1 23:30:34 10° N 23:34:12 33° ENE 23:37:13 13° SE
COSMOS 2455 4.2 23:36:09 10° NW 23:41:49 40° NE 23:47:27 10° ESE
CZ-2D R/B 4.4 23:40:11 10° ENE 23:42:06 12° E 23:44:01 10° ESE
Cosmos 44 3.8 23:41:21 23° S 23:43:38 38° ESE 23:47:46 10° NE
Cosmos 1633 4.3 23:45:56 11° WSW 23:48:33 24° WNW 23:51:28 10° NNW
Cosmos 2237 Rocket 3.7 23:47:14 10° NNW 23:52:27 35° NE 23:57:36 10° ESE
COSMOS 2428 3.0 23:48:22 10° NNW 23:54:05 69° NE 23:59:47 10° SE
